Location: Unspecified
(0.0000°N, 0.0000°E)
Time: 20:31:17
(UTC+00:00)

SL-14 Deb - Visible Passes

Search period start: 26 February 2024 00:00
Search period end: 07 March 2024 00:00
Orbit: 1447 x 1507 km, 82.7° (Epoch: 25 February)

Date Brightness Start Highest point End Pass type
(mag) Time Alt. Az. Time Alt. Az. Time Alt. Az.
26 Feb ? 20:12:22 10° SSW 20:20:39 45° W 20:28:54 10° NNW visible
27 Feb ? 19:18:09 10° S 19:27:01 80° E 19:35:47 10° N visible
27 Feb ? 21:22:32 10° W 21:22:59 10° W 21:23:27 10° W visible
28 Feb ? 18:25:36 10° SSE 18:33:22 35° E 18:41:02 10° NNE visible
28 Feb ? 20:21:57 10° SW 20:29:21 30° W 20:36:44 10° NNW visible
29 Feb ? 19:26:55 10° S 19:35:43 72° W 19:44:26 10° N visible
01 Mar ? 18:33:34 10° SSE 18:42:04 51° E 18:50:27 10° NNE visible
01 Mar ? 20:32:11 10° SW 20:38:03 20° W 20:43:54 10° NW visible
02 Mar ? 19:36:00 10° SSW 19:44:24 49° W 19:52:45 10° NNW visible
03 Mar ? 18:41:57 10° S 18:50:47 75° E 18:59:29 10° N visible
03 Mar ? 20:44:08 10° WSW 20:46:44 12° W 20:49:21 10° WNW visible
04 Mar ? 05:21:28 10° ENE 05:25:43 15° E 05:29:58 10° ESE visible
04 Mar ? 19:45:29 10° SSW 19:53:06 33° W 20:00:41 10° NNW visible
05 Mar ? 18:50:38 10° S 18:59:28 78° W 19:08:12 10° N visible
06 Mar ? 05:27:58 10° NE 05:34:24 24° E 05:40:51 10° SE visible
06 Mar ? 19:55:33 10° SW 20:01:48 22° W 20:08:01 10° NW visible
